When you browse on this site, cookies collect data to enhance your experience and personalize the content and advertising you see.
Visit our Privacy Policy to learn more. By continuing to use the site, you agree to this use of cookies and data.
  • In Romania
  • List of Countries
  • For 7 days
  • Water Temperature
  • Weather Map
  • Weather Widgets
  • user-avatar
    Login

    Hourly Weather Albany

    Today, 20 August, Tuesday

    Time Temperature Precipitation Wind Pressure Humidity
    00:00 +11°C° 0 mm 3 mps 772 mmHg 86%
    01:00 +10°C° 0 mm 3 mps 772 mmHg 88%
    02:00 +9°C° 0 mm 3 mps 772 mmHg 90%
    03:00 +9°C° 0 mm 3 mps 771 mmHg 91%
    04:00 +8°C° 0 mm 3 mps 771 mmHg 91%
    05:00 +8°C° 0 mm 3 mps 771 mmHg 92%
    06:00 +9°C° 0 mm 3 mps 771 mmHg 91%
    07:00 +9°C° 0 mm 3 mps 772 mmHg 89%
    08:00 +10°C° 0 mm 2 mps 772 mmHg 85%
    09:00 +13°C° 0 mm 2 mps 772 mmHg 78%
    10:00 +15°C° 0 mm 2 mps 772 mmHg 71%
    11:00 +17°C° 0 mm 2 mps 771 mmHg 64%
    12:00 +17°C° 0 mm 2 mps 771 mmHg 61%
    13:00 +18°C° 0 mm 2 mps 770 mmHg 58%
    14:00 +19°C° 0 mm 2 mps 770 mmHg 56%
    15:00 +18°C° 0 mm 2 mps 770 mmHg 62%
    16:00 +17°C° 0 mm 2 mps 769 mmHg 68%
    17:00 +16°C° 0 mm 2 mps 769 mmHg 74%
    18:00 +15°C° 0 mm 2 mps 770 mmHg 78%
    19:00 +13°C° 0 mm 2 mps 770 mmHg 82%
    20:00 +12°C° 0 mm 2 mps 770 mmHg 85%
    21:00 +10°C° 0 mm 2 mps 770 mmHg 86%
    22:00 +10°C° 0 mm 2 mps 769 mmHg 87%
    23:00 +9°C° 0 mm 2 mps 769 mmHg 88%

    Tomorrow, 21 August, Wednesday

    Time Temperature Precipitation Wind Pressure Humidity
    00:00 +9°C° 0 mm 2 mps 769 mmHg 87%
    01:00 +9°C° 0 mm 2 mps 768 mmHg 86%
    02:00 +8°C° 0 mm 2 mps 768 mmHg 85%
    03:00 +8°C° 0 mm 2 mps 767 mmHg 84%
    04:00 +8°C° 0 mm 2 mps 767 mmHg 83%
    05:00 +8°C° 0 mm 3 mps 767 mmHg 82%
    06:00 +8°C° 0 mm 3 mps 767 mmHg 80%
    07:00 +9°C° 0 mm 3 mps 767 mmHg 77%
    08:00 +10°C° 0 mm 4 mps 767 mmHg 75%
    09:00 +12°C° 0 mm 4 mps 766 mmHg 68%
    10:00 +15°C° 0 mm 5 mps 766 mmHg 60%
    11:00 +17°C° 0 mm 6 mps 766 mmHg 53%
    12:00 +19°C° 0 mm 6 mps 765 mmHg 53%
    13:00 +20°C° 0 mm 5 mps 764 mmHg 53%
    14:00 +20°C° 0 mm 5 mps 763 mmHg 53%
    15:00 +19°C° 0 mm 5 mps 763 mmHg 58%
    16:00 +18°C° 0 mm 4 mps 763 mmHg 64%
    17:00 +17°C° 0 mm 4 mps 763 mmHg 69%
    18:00 +15°C° 0 mm 4 mps 763 mmHg 70%
    19:00 +14°C° 0 mm 4 mps 763 mmHg 71%
    20:00 +13°C° 0 mm 5 mps 763 mmHg 72%
    21:00 +12°C° 0 mm 5 mps 762 mmHg 71%
    22:00 +12°C° 0 mm 5 mps 762 mmHg 70%
    23:00 +12°C° 0 mm 5 mps 762 mmHg 68%

    Day after tomorrow, 22 August, Thursday

    Time Temperature Precipitation Wind Pressure Humidity
    00:00 +11°C° 0 mm 6 mps 761 mmHg 65%
    01:00 +11°C° 0 mm 6 mps 761 mmHg 61%
    02:00 +11°C° 0 mm 6 mps 760 mmHg 58%
    03:00 +11°C° 0 mm 7 mps 760 mmHg 55%
    04:00 +11°C° 0 mm 7 mps 759 mmHg 51%
    05:00 +11°C° 0 mm 7 mps 759 mmHg 48%
    06:00 +11°C° 0 mm 7 mps 759 mmHg 49%
    07:00 +11°C° 0 mm 7 mps 758 mmHg 50%
    08:00 +11°C° 0 mm 7 mps 758 mmHg 50%
    09:00 +13°C° 0 mm 8 mps 758 mmHg 50%
    10:00 +16°C° 0 mm 8 mps 758 mmHg 49%
    11:00 +17°C° 0 mm 8 mps 757 mmHg 49%
    12:00 +18°C° 0 mm 8 mps 756 mmHg 49%
    13:00 +20°C° 0 mm 7 mps 755 mmHg 50%
    14:00 +20°C° 0 mm 7 mps 754 mmHg 50%
    15:00 +20°C° 0 mm 7 mps 754 mmHg 55%
    16:00 +19°C° 0 mm 6 mps 754 mmHg 61%
    17:00 +17°C° 0 mm 6 mps 754 mmHg 66%
    18:00 +16°C° 1.1 mm 6 mps 755 mmHg 75%
    19:00 +15°C° 1.1 mm 7 mps 755 mmHg 84%
    20:00 +12°C° 1.1 mm 7 mps 755 mmHg 93%
    21:00 +12°C° 2 mm 7 mps 756 mmHg 93%
    22:00 +11°C° 2 mm 7 mps 756 mmHg 93%
    23:00 +10°C° 2 mm 8 mps 757 mmHg 93%

    23 August, Friday

    Time Temperature Precipitation Wind Pressure Humidity
    00:00 +10°C° 0.5 mm 7 mps 757 mmHg 89%
    01:00 +9°C° 0.5 mm 7 mps 758 mmHg 85%
    02:00 +9°C° 0.5 mm 7 mps 758 mmHg 81%
    03:00 +8°C° 0.3 mm 7 mps 759 mmHg 83%
    04:00 +7°C° 0.3 mm 8 mps 759 mmHg 85%
    05:00 +7°C° 0.3 mm 8 mps 760 mmHg 87%
    06:00 +6°C° 0.1 mm 8 mps 761 mmHg 83%
    07:00 +6°C° 0.1 mm 7 mps 761 mmHg 78%
    08:00 +6°C° 0.1 mm 7 mps 762 mmHg 74%
    09:00 +8°C° 0.1 mm 7 mps 763 mmHg 68%
    10:00 +9°C° 0.1 mm 7 mps 763 mmHg 63%
    11:00 +10°C° 0.1 mm 7 mps 764 mmHg 57%
    12:00 +10°C° 0.1 mm 6 mps 764 mmHg 59%
    13:00 +9°C° 0.1 mm 6 mps 764 mmHg 61%
    14:00 +9°C° 0.1 mm 6 mps 764 mmHg 64%
    15:00 +9°C° 0 mm 5 mps 765 mmHg 63%
    16:00 +10°C° 0 mm 4 mps 765 mmHg 63%
    17:00 +8°C° 0 mm 4 mps 766 mmHg 62%
    18:00 +9°C° 0 mm 3 mps 766 mmHg 63%
    19:00 +9°C° 0 mm 3 mps 767 mmHg 65%
    20:00 +8°C° 0 mm 3 mps 767 mmHg 66%
    21:00 +8°C° 0 mm 3 mps 767 mmHg 67%
    22:00 +8°C° 0 mm 2 mps 768 mmHg 67%
    23:00 +7°C° 0 mm 2 mps 768 mmHg 68%

    24 August, Saturday

    Time Temperature Precipitation Wind Pressure Humidity
    00:00 +7°C° 0 mm 2 mps 768 mmHg 68%
    01:00 +8°C° 0 mm 1 mps 768 mmHg 68%
    02:00 +8°C° 0 mm 1 mps 767 mmHg 69%
    03:00 +8°C° 0 mm 1 mps 768 mmHg 68%
    04:00 +8°C° 0 mm 1 mps 768 mmHg 68%
    05:00 +8°C° 0 mm 1 mps 768 mmHg 68%
    06:00 +8°C° 0 mm 1 mps 768 mmHg 68%
    07:00 +8°C° 0 mm 1 mps 768 mmHg 68%
    08:00 +8°C° 0 mm 1 mps 769 mmHg 68%
    09:00 +10°C° 0 mm 1 mps 769 mmHg 63%
    10:00 +11°C° 0 mm 1 mps 769 mmHg 59%
    11:00 +12°C° 0 mm 1 mps 768 mmHg 54%
    12:00 +12°C° 0 mm 1 mps 768 mmHg 54%
    13:00 +13°C° 0 mm 1 mps 767 mmHg 53%
    14:00 +13°C° 0 mm 1 mps 767 mmHg 53%
    15:00 +13°C° 0 mm 2 mps 767 mmHg 57%
    16:00 +12°C° 0 mm 2 mps 767 mmHg 61%
    17:00 +10°C° 0 mm 3 mps 767 mmHg 65%
    18:00 +10°C° 0 mm 3 mps 767 mmHg 65%
    19:00 +10°C° 0 mm 3 mps 767 mmHg 65%
    20:00 +9°C° 0 mm 3 mps 768 mmHg 64%
    21:00 +9°C° 0 mm 3 mps 768 mmHg 65%
    22:00 +9°C° 0 mm 3 mps 767 mmHg 66%
    23:00 +9°C° 0 mm 3 mps 767 mmHg 66%

    25 August, Sunday

    Time Temperature Precipitation Wind Pressure Humidity
    00:00 +8°C° 0 mm 3 mps 767 mmHg 67%
    01:00 +8°C° 0 mm 3 mps 766 mmHg 68%
    02:00 +8°C° 0 mm 3 mps 766 mmHg 69%
    03:00 +7°C° 0 mm 3 mps 766 mmHg 71%
    04:00 +7°C° 0 mm 2 mps 766 mmHg 72%
    05:00 +7°C° 0 mm 2 mps 766 mmHg 74%
    06:00 +7°C° 0 mm 2 mps 766 mmHg 76%
    07:00 +7°C° 0 mm 2 mps 766 mmHg 79%
    08:00 +7°C° 0 mm 2 mps 766 mmHg 81%
    09:00 +9°C° 0 mm 2 mps 766 mmHg 72%
    10:00 +12°C° 0 mm 1 mps 766 mmHg 63%
    11:00 +15°C° 0 mm 1 mps 766 mmHg 54%
    12:00 +15°C° 0 mm 1 mps 765 mmHg 55%
    13:00 +15°C° 0 mm 1 mps 765 mmHg 55%
    14:00 +15°C° 0 mm 1 mps 764 mmHg 55%
    15:00 +14°C° 0 mm 2 mps 765 mmHg 60%
    16:00 +13°C° 0 mm 2 mps 765 mmHg 65%
    17:00 +12°C° 0 mm 2 mps 765 mmHg 70%
    18:00 +11°C° 0 mm 1 mps 765 mmHg 72%
    19:00 +9°C° 0 mm 1 mps 766 mmHg 75%
    20:00 +8°C° 0 mm 1 mps 766 mmHg 78%
    21:00 +8°C° 0 mm 1 mps 766 mmHg 80%
    22:00 +7°C° 0 mm 1 mps 766 mmHg 83%
    23:00 +7°C° 0 mm 1 mps 766 mmHg 85%
    Show more